EW1036 Weather Reports


Display with metric or nautical units.
time (UTC)temp
F
wind
direction
speed
MPH
gust
MPH
rain 1hr
in
rain 24hr
in
rain mn
in
humidity
%
barometer
mb
20260902194557 88 0 0.0 0.0 0.00 0.00 0.00 78 1016.6
20260902194034 88 0 0.0 0.0 0.00 0.00 0.00 82 1016.5
20260902193534 89 0 0.0 0.0 0.00 0.00 0.00 76 1016.6
20260902193053 88 0 0.0 0.0 0.00 0.00 0.00 80 1016.7
20260902192533 88 0 0.0 0.0 0.00 0.00 0.00 78 1016.8
20260902192035 88 0 0.0 0.0 0.00 0.00 0.00 81 1016.8
20260902191602 88 0 0.0 0.0 0.00 0.00 0.00 81 1017.0
20260902191035 88 0 0.0 0.0 0.00 0.00 0.00 81 1017.0
20260902190533 88 0 0.0 0.0 0.00 0.00 0.00 81 1016.9
20260902190103 89 0 0.0 0.0 0.00 0.00 0.00 75 1016.9
20260902185535 89 0 0.0 0.0 0.00 0.00 0.00 77 1017.0
20260902185034 89 0 0.0 0.0 0.00 0.00 0.00 81 1016.9
20260902184618 89 0 0.0 0.0 0.00 0.00 0.00 80 1017.0
20260902184033 88 0 0.0 0.0 0.00 0.00 0.00 84 1017.1
20260902183535 88 0 0.0 0.0 0.00 0.00 0.00 83 1017.2
20260902183109 89 0 0.0 0.0 0.00 0.00 0.00 85 1017.2
20260902182533 89 0 0.0 0.0 0.00 0.00 0.00 81 1017.2
20260902182036 88 0 0.0 0.0 0.00 0.00 0.00 83 1017.2
20260902181553 88 0 0.0 0.0 0.00 0.00 0.00 80 1017.3
20260902181035 88 0 0.0 0.0 0.00 0.00 0.00 82 1017.4
20260902180533 89 0 0.0 0.0 0.00 0.00 0.00 81 1017.4
20260902180051 89 0 0.0 0.0 0.00 0.00 0.00 79 1017.4
20260902175533 89 0 0.0 0.0 0.00 0.00 0.00 81 1017.4
20260902175033 89 0 0.0 0.0 0.00 0.00 0.00 80 1017.4
20260902174553 89 0 0.0 0.0 0.00 0.00 0.00 81 1017.4
20260902174034 89 0 0.0 0.0 0.00 0.00 0.00 76 1017.4
20260902173533 90 0 0.0 0.0 0.00 0.00 0.00 75 1017.4
20260902173053 90 0 0.0 0.0 0.00 0.00 0.00 74 1017.4
20260902172534 90 0 0.0 0.0 0.00 0.00 0.00 76 1017.4
20260902172033 90 0 0.0 0.0 0.00 0.00 0.00 74 1017.4
20260902171601 89 0 0.0 0.0 0.00 0.00 0.00 78 1017.4
20260902171033 89 0 0.0 0.0 0.00 0.00 0.00 79 1017.5
20260902170534 90 0 0.0 0.0 0.00 0.00 0.00 78 1017.6
20260902170053 90 0 0.0 0.0 0.00 0.00 0.00 78 1017.6
20260902165533 89 0 0.0 0.0 0.00 0.00 0.00 75 1017.7
20260902165033 89 0 0.0 0.0 0.00 0.00 0.00 77 1017.7
20260902164549 89 0 0.0 0.0 0.00 0.00 0.00 78 1017.6
20260902164033 89 0 0.0 0.0 0.00 0.00 0.00 79 1017.6
20260902163534 89 0 0.0 0.0 0.00 0.00 0.00 79 1017.6
20260902163100 89 0 0.0 0.0 0.00 0.00 0.00 78 1017.6
20260902162532 88 0 0.0 0.0 0.00 0.00 0.00 78 1017.6
20260902162034 90 0 0.0 0.0 0.00 0.00 0.00 75 1017.7
20260902161556 89 0 0.0 0.0 0.00 0.00 0.00 78 1017.7
20260902161034 89 0 0.0 0.0 0.00 0.00 0.00 75 1017.9
20260902160533 89 0 0.0 0.0 0.00 0.00 0.00 81 1018.0
20260902160054 88 0 0.0 0.0 0.00 0.00 0.00 76 1018.0
20260902155533 89 0 0.0 0.0 0.00 0.00 0.00 77 1018.0
20260902155032 89 0 0.0 0.0 0.00 0.00 0.00 79 1017.9
20260902154549 89 0 0.0 0.0 0.00 0.00 0.00 79 1017.9
20260902154033 89 0 0.0 0.0 0.00 0.00 0.00 78 1018.0
20260902153533 88 0 0.0 0.0 0.00 0.00 0.00 77 1018.0
20260902153058 88 0 0.0 0.0 0.00 0.00 0.00 79 1018.0
20260902152536 88 0 0.0 0.0 0.00 0.00 0.00 81 1018.1
20260902152033 88 0 0.0 0.0 0.00 0.00 0.00 79 1018.1
20260902151558 88 0 0.0 0.0 0.00 0.00 0.00 79 1018.0
20260902151033 88 0 0.0 0.0 0.00 0.00 0.00 78 1018.1
20260902150532 87 0 0.0 0.0 0.00 0.00 0.00 82 1018.0
20260902150054 87 0 0.0 0.0 0.00 0.00 0.00 82 1018.0
20260902145533 87 0 0.0 0.0 0.00 0.00 0.00 79 1018.0
20260902145033 87 0 0.0 0.0 0.00 0.00 0.00 81 1018.0
20260902144552 86 0 0.0 0.0 0.00 0.00 0.00 83 1017.9
20260902144033 86 0 0.0 0.0 0.00 0.00 0.00 83 1017.9
20260902143533 84 0 0.0 0.0 0.00 0.00 0.00 85 1017.9
20260902143056 83 0 0.0 0.0 0.00 0.00 0.00 83 1017.9
20260902142534 84 0 0.0 0.0 0.00 0.00 0.00 83 1017.9
20260902142034 84 0 0.0 0.0 0.00 0.00 0.00 82 1017.8
20260902141547 83 0 0.0 0.0 0.00 0.00 0.00 86 1017.8
20260902141033 82 0 0.0 0.0 0.00 0.00 0.00 86 1017.9
20260902140533 82 0 0.0 0.0 0.00 0.00 0.00 89 1017.8
20260902140046 81 0 0.0 0.0 0.00 0.00 0.00 86 1017.8
20260902135536 82 0 0.0 0.0 0.00 0.00 0.00 85 1017.7
20260902135032 82 0 0.0 0.0 0.00 0.00 0.00 85 1017.7
20260902134604 82 0 0.0 0.0 0.00 0.00 0.00 84 1017.8
20260902134032 82 0 0.0 0.0 0.00 0.00 0.00 85 1017.8
20260902133533 83 0 0.0 0.0 0.00 0.00 0.00 89 1017.9
20260902133056 82 0 0.0 0.0 0.00 0.00 0.00 86 1018.0
20260902132533 81 0 0.0 0.0 0.00 0.00 0.00 87 1018.0
20260902132033 82 0 0.0 0.0 0.00 0.00 0.00 89 1018.1
20260902131550 80 0 0.0 0.0 0.00 0.00 0.00 88 1018.1
20260902131033 81 0 0.0 0.0 0.00 0.00 0.00 89 1018.1
20260902130533 81 0 0.0 0.0 0.00 0.00 0.00 89 1018.1
20260902130051 81 0 0.0 0.0 0.00 0.00 0.00 91 1018.1
20260902125532 80 0 0.0 0.0 0.00 0.00 0.00 92 1018.1
20260902125034 80 0 0.0 0.0 0.00 0.00 0.00 93 1018.2
20260902124556 79 0 0.0 0.0 0.00 0.00 0.00 96 1018.3
20260902124032 78 0 0.0 0.0 0.00 0.00 0.00 96 1018.4
20260902123532 78 0 0.0 0.0 0.00 0.00 0.00 96 1018.3
20260902123051 78 0 0.0 0.0 0.00 0.00 0.00 97 1018.4
20260902122533 78 0 0.0 0.0 0.00 0.00 0.00 96 1018.4
20260902122032 78 0 0.0 0.0 0.00 0.00 0.00 96 1018.3
20260902121548 78 0 0.0 0.0 0.00 0.00 0.00 96 1018.3
20260902121030 78 0 0.0 0.0 0.00 0.00 0.00 96 1018.3
20260902120533 77 0 0.0 0.0 0.00 0.00 0.00 96 1018.3
20260902120055 77 0 0.0 0.0 0.00 0.00 0.00 96 1018.2
20260902115535 77 0 0.0 0.0 0.00 0.00 0.00 96 1018.2
20260902115032 77 0 0.0 0.0 0.00 0.00 0.00 96 1018.1
20260902114558 77 0 0.0 0.0 0.00 0.00 0.00 96 1018.1
20260902114032 77 0 0.0 0.0 0.00 0.00 0.00 96 1018.1
20260902113532 77 0 0.0 0.0 0.00 0.00 0.00 96 1018.0
20260902113057 77 0 0.0 0.0 0.00 0.00 0.00 96 1018.1
20260902112533 77 0 0.0 0.0 0.00 0.00 0.00 96 1018.1
20260902112034 77 0 0.0 0.0 0.00 0.00 0.00 96 1018.1
20260902111548 77 0 0.0 0.0 0.00 0.00 0.00 96 1018.1
20260902111033 77 0 0.0 0.0 0.00 0.00 0.00 96 1018.0
20260902110535 77 0 0.0 0.0 0.00 0.00 0.00 96 1017.9
20260902110045 77 0 0.0 0.0 0.00 0.00 0.00 96 1017.8
20260902105532 77 0 0.0 0.0 0.00 0.00 0.00 96 1017.8
20260902105033 77 0 0.0 0.0 0.00 0.00 0.00 96 1017.8
20260902104557 77 0 0.0 0.0 0.00 0.00 0.00 96 1017.9
20260902104032 77 0 0.0 0.0 0.00 0.00 0.00 96 1017.8
20260902103532 77 0 0.0 0.0 0.00 0.00 0.00 96 1017.8
20260902103055 77 0 0.0 0.0 0.00 0.00 0.00 96 1017.8
20260902102533 77 0 0.0 0.0 0.00 0.00 0.00 96 1017.9
20260902102033 77 0 0.0 0.0 0.00 0.00 0.00 96 1017.8
20260902101554 77 0 0.0 0.0 0.00 0.00 0.00 96 1017.9
20260902101032 77 0 0.0 0.0 0.00 0.00 0.00 96 1017.9
20260902100532 77 0 0.0 0.0 0.00 0.00 0.00 96 1017.8
20260902100107 77 0 0.0 0.0 0.00 0.00 0.00 96 1017.8
20260902095533 77 0 0.0 0.0 0.00 0.00 0.00 96 1017.9
20260902095034 77 0 0.0 0.0 0.00 0.00 0.00 96 1017.8
20260902094553 77 0 0.0 0.0 0.00 0.00 0.00 96 1017.8
20260902094032 77 0 0.0 0.0 0.00 0.00 0.00 96 1017.7
20260902093533 77 0 0.0 0.0 0.00 0.00 0.00 96 1017.7
20260902093055 77 0 0.0 0.0 0.00 0.00 0.00 96 1017.8
20260902092533 77 0 0.0 0.0 0.00 0.00 0.00 96 1017.8
20260902092034 77 0 0.0 0.0 0.00 0.00 0.00 96 1017.8
20260902091607 77 0 0.0 0.0 0.00 0.00 0.00 96 1017.8
20260902091037 77 0 0.0 0.0 0.00 0.00 0.00 96 1017.7
20260902090533 77 0 0.0 0.0 0.00 0.00 0.00 96 1017.8
20260902090052 77 0 0.0 0.0 0.00 0.00 0.00 96 1017.7
20260902085534 77 0 0.0 0.0 0.00 0.00 0.00 96 1017.6
20260902085033 77 0 0.0 0.0 0.00 0.00 0.00 96 1017.6
20260902084600 77 0 0.0 0.0 0.00 0.00 0.00 96 1017.5
20260902084033 77 0 0.0 0.0 0.00 0.00 0.00 96 1017.6
20260902083532 77 0 0.0 0.0 0.00 0.00 0.00 96 1017.6
20260902083057 77 0 0.0 0.0 0.00 0.00 0.00 96 1017.6
20260902082533 77 0 0.0 0.0 0.00 0.00 0.00 96 1017.6
20260902082033 77 0 0.0 0.0 0.00 0.00 0.00 96 1017.6
20260902081556 77 0 0.0 0.0 0.00 0.00 0.00 96 1017.6
20260902081033 77 0 0.0 0.0 0.00 0.00 0.00 96 1017.5
20260902080534 77 0 0.0 0.0 0.00 0.00 0.00 96 1017.5
20260902080108 77 0 0.0 0.0 0.00 0.00 0.00 96 1017.5
20260902075533 77 0 0.0 0.0 0.00 0.00 0.00 96 1017.4
20260902075034 77 0 0.0 0.0 0.00 0.00 0.00 96 1017.4
20260902074550 77 0 0.0 0.0 0.00 0.00 0.00 96 1017.4
20260902074033 77 0 0.0 0.0 0.00 0.00 0.00 96 1017.4
20260902073534 77 0 0.0 0.0 0.00 0.00 0.00 96 1017.4
20260902073056 77 0 0.0 0.0 0.00 0.00 0.00 96 1017.5
20260902072535 77 0 0.0 0.0 0.00 0.00 0.00 96 1017.4
20260902072033 77 0 0.0 0.0 0.00 0.00 0.00 96 1017.5
20260902071614 77 0 0.0 0.0 0.00 0.00 0.00 96 1017.5
20260902071035 77 0 0.0 0.0 0.00 0.00 0.00 96 1017.6
20260902070532 77 0 0.0 0.0 0.00 0.00 0.00 96 1017.6
20260902070058 77 0 0.0 0.0 0.00 0.00 0.00 96 1017.6
20260902065533 77 0 0.0 0.0 0.00 0.00 0.00 96 1017.7
20260902065033 77 0 0.0 0.0 0.00 0.00 0.00 96 1017.7
20260902064552 77 0 0.0 0.0 0.00 0.00 0.00 96 1017.7
20260902064034 77 0 0.0 0.0 0.00 0.00 0.00 96 1017.8
20260902063534 77 0 0.0 0.0 0.00 0.00 0.00 96 1017.8
20260902063048 77 0 0.0 0.0 0.00 0.00 0.00 96 1017.9
20260902062533 78 0 0.0 0.0 0.00 0.00 0.00 96 1017.8
20260902062033 78 0 0.0 0.0 0.00 0.00 0.00 96 1017.9
20260902061604 78 0 0.0 0.0 0.00 0.00 0.00 96 1017.9
20260902061033 78 0 0.0 0.0 0.00 0.00 0.00 96 1017.9
20260902060532 78 0 0.0 0.0 0.00 0.00 0.00 96 1017.9
20260902060056 78 0 0.0 0.0 0.00 0.00 0.00 96 1017.9
20260902055532 78 0 0.0 0.0 0.00 0.00 0.00 96 1018.0
20260902055033 78 0 0.0 0.0 0.00 0.00 0.00 95 1017.9
20260902054555 78 0 0.0 0.0 0.00 0.00 0.00 95 1017.9
20260902054035 78 0 0.0 0.0 0.00 0.00 0.00 95 1017.9
20260902053534 78 0 0.0 0.0 0.00 0.00 0.00 95 1017.8
20260902053054 78 0 0.0 0.0 0.00 0.00 0.00 95 1017.8
20260902052533 78 0 0.0 0.0 0.00 0.00 0.00 95 1017.8
20260902052034 78 0 0.0 0.0 0.00 0.00 0.00 95 1017.8
20260902051548 78 0 0.0 0.0 0.00 0.00 0.00 95 1017.8
20260902051033 78 0 0.0 0.0 0.00 0.00 0.00 95 1017.8
20260902050535 78 0 0.0 0.0 0.00 0.00 0.00 95 1017.8
20260902050057 78 0 0.0 0.0 0.00 0.00 0.00 95 1017.8
20260902045533 78 0 0.0 0.0 0.00 0.00 0.00 95 1017.7
20260902045033 78 0 0.0 0.0 0.00 0.00 0.00 95 1017.7
20260902044555 78 0 0.0 0.0 0.00 0.00 0.00 95 1017.7
20260902044034 78 0 0.0 0.0 0.00 0.00 0.00 95 1017.7
20260902043533 78 0 0.0 0.0 0.00 0.00 0.00 95 1017.6
20260902043056 78 0 0.0 0.0 0.00 0.00 0.00 95 1017.6
20260902042533 78 0 0.0 0.0 0.00 0.00 0.00 95 1017.5
20260902042033 78 0 0.0 0.0 0.00 0.00 0.00 95 1017.6
20260902041551 78 0 0.0 0.0 0.00 0.00 0.00 95 1017.5
20260902041033 78 0 0.0 0.0 0.00 0.00 0.00 95 1017.5
20260902040533 78 0 0.0 0.0 0.00 0.00 0.00 94 1017.5
20260902040048 78 0 0.0 0.0 0.00 0.00 0.00 94 1017.4
20260902035532 78 0 0.0 0.0 0.00 0.00 0.00 94 1017.4
20260902035032 78 0 0.0 0.0 0.00 0.00 0.00 94 1017.3
20260902034556 78 0 0.0 0.0 0.00 0.00 0.00 94 1017.3
20260902034036 79 0 0.0 0.0 0.00 0.00 0.00 94 1017.3
20260902033533 79 0 0.0 0.0 0.00 0.00 0.00 94 1017.3
20260902033056 79 0 0.0 0.0 0.00 0.00 0.00 94 1017.3
20260902032533 79 0 0.0 0.0 0.00 0.00 0.00 94 1017.3
20260902032033 79 0 0.0 0.0 0.00 0.00 0.00 94 1017.2
20260902031554 79 0 0.0 0.0 0.00 0.00 0.00 94 1017.2
20260902031032 79 0 0.0 0.0 0.00 0.00 0.00 94 1017.2
20260902030536 79 0 0.0 0.0 0.00 0.00 0.00 94 1017.2
20260902030048 79 0 0.0 0.0 0.00 0.00 0.00 94 1017.3
20260902025533 79 0 0.0 0.0 0.00 0.00 0.00 93 1017.2
20260902025035 79 0 0.0 0.0 0.00 0.00 0.00 93 1017.2
20260902024555 79 0 0.0 0.0 0.00 0.00 0.00 93 1017.1
20260902024032 79 0 0.0 0.0 0.00 0.00 0.00 93 1017.0
20260902023532 79 0 0.0 0.0 0.00 0.00 0.00 93 1017.0
20260902023053 79 0 0.0 0.0 0.00 0.00 0.00 93 1016.9
20260902022536 79 0 0.0 0.0 0.00 0.00 0.00 93 1016.9
20260902022032 79 0 0.0 0.0 0.00 0.00 0.00 93 1017.0
20260902021558 79 0 0.0 0.0 0.00 0.00 0.00 93 1017.0
20260902021033 79 0 0.0 0.0 0.00 0.00 0.00 92 1017.1
20260902020533 79 0 0.0 0.0 0.00 0.00 0.00 92 1017.0
20260902020050 79 0 0.0 0.0 0.00 0.00 0.00 92 1017.0
20260902015535 79 0 0.0 0.0 0.00 0.00 0.00 92 1017.1
20260902015032 79 0 0.0 0.0 0.00 0.00 0.00 92 1017.0
20260902014557 80 0 0.0 0.0 0.00 0.00 0.00 91 1017.0
20260902014033 80 0 0.0 0.0 0.00 0.00 0.00 91 1016.9
20260902013533 80 0 0.0 0.0 0.00 0.00 0.00 91 1016.9
20260902013054 80 0 0.0 0.0 0.00 0.00 0.00 91 1016.9
20260902012532 80 0 0.0 0.0 0.00 0.00 0.00 91 1016.8
20260902012034 80 0 0.0 0.0 0.00 0.00 0.00 91 1016.8
20260902011559 80 0 0.0 0.0 0.00 0.00 0.00 91 1016.9
20260902011035 80 0 0.0 0.0 0.00 0.00 0.00 90 1016.8
20260902010531 80 0 0.0 0.0 0.00 0.00 0.00 90 1016.7
20260902010116 80 0 0.0 0.0 0.00 0.00 0.00 90 1016.8
20260902005533 80 0 0.0 0.0 0.00 0.00 0.00 89 1016.7
20260902005033 80 0 0.0 0.0 0.00 0.00 0.00 89 1016.7
20260902004548 80 0 0.0 0.0 0.00 0.00 0.00 89 1016.7
20260902004033 80 0 0.0 0.0 0.00 0.00 0.00 89 1016.8
20260902003533 80 0 0.0 1.0 0.00 0.00 0.00 88 1016.8
20260902003057 81 0 0.0 1.0 0.00 0.00 0.00 88 1016.8
20260902002536 81 0 0.0 0.0 0.00 0.00 0.00 88 1016.8
20260902002034 80 0 0.0 0.0 0.00 0.00 0.00 88 1016.9
20260902001554 80 0 0.0 0.0 0.00 0.00 0.00 88 1016.8
20260902001036 80 0 0.0 0.0 0.00 0.00 0.00 88 1016.8
20260902000534 80 0 0.0 0.0 0.00 0.00 0.00 87 1016.8
20260902000055 80 0 0.0 0.0 0.00 0.00 0.00 86 1016.9
20260901235534 80 0 0.0 0.0 0.00 0.00 0.00 86 1016.9
20260901235031 80 0 0.0 0.0 0.00 0.00 0.00 86 1016.9
20260901234547 80 0 0.0 0.0 0.00 0.00 0.00 84 1016.9
20260901234034 81 0 0.0 0.0 0.00 0.00 0.00 83 1017.1
20260901233534 81 0 0.0 0.0 0.00 0.00 0.00 83 1017.0
20260901233102 81 0 0.0 0.0 0.00 0.00 0.00 83 1017.0
20260901232531 81 0 0.0 0.0 0.00 0.00 0.00 83 1016.9
20260901232037 81 0 0.0 0.0 0.00 0.00 0.00 83 1016.9
20260901231557 81 0 0.0 0.0 0.00 0.00 0.00 82 1017.0
20260901231034 81 0 0.0 0.0 0.00 0.00 0.00 82 1016.9
20260901230533 82 0 0.0 0.0 0.00 0.00 0.00 82 1016.8
20260901230053 82 0 0.0 0.0 0.00 0.00 0.00 81 1016.9
20260901225535 82 0 0.0 0.0 0.00 0.00 0.00 80 1016.8
20260901225034 82 0 0.0 0.0 0.00 0.00 0.00 80 1016.8
20260901224551 82 0 0.0 0.0 0.00 0.00 0.00 80 1016.8
20260901224033 83 0 0.0 0.0 0.00 0.00 0.00 82 1016.9
20260901223534 83 0 0.0 0.0 0.00 0.00 0.00 81 1016.9
20260901223052 83 0 0.0 0.0 0.00 0.00 0.00 81 1016.9
20260901222534 83 0 0.0 0.0 0.00 0.00 0.00 81 1016.8
20260901222033 83 0 0.0 0.0 0.00 0.00 0.00 80 1016.7
20260901221615 83 0 0.0 0.0 0.00 0.00 0.00 80 1016.7
20260901221032 83 0 0.0 0.0 0.00 0.00 0.00 79 1016.8
20260901220537 84 0 0.0 0.0 0.00 0.00 0.00 79 1016.8
20260901220054 84 0 0.0 0.0 0.00 0.00 0.00 77 1016.8
20260901215533 84 0 0.0 0.0 0.00 0.00 0.00 77 1016.9
20260901215035 84 0 0.0 0.0 0.00 0.00 0.00 79 1016.9
20260901214553 84 0 0.0 0.0 0.00 0.00 0.00 80 1016.9
20260901214033 84 0 0.0 0.0 0.00 0.00 0.00 81 1016.8
20260901213536 84 0 0.0 0.0 0.00 0.00 0.00 80 1016.8
20260901213054 84 0 0.0 0.0 0.00 0.00 0.00 78 1016.8
20260901212533 84 0 0.0 0.0 0.00 0.00 0.00 79 1016.9
20260901212033 85 0 0.0 0.0 0.00 0.00 0.00 80 1016.7
20260901211547 85 0 0.0 0.0 0.00 0.00 0.00 80 1016.8
20260901211033 85 0 0.0 0.0 0.00 0.00 0.00 81 1016.8
20260901210531 85 0 0.0 0.0 0.00 0.00 0.00 83 1016.7
20260901210056 85 0 0.0 0.0 0.00 0.00 0.00 80 1016.7
20260901205534 85 0 0.0 0.0 0.00 0.00 0.00 81 1016.8
20260901205035 85 0 0.0 0.0 0.00 0.00 0.00 83 1016.8
20260901204551 85 0 0.0 0.0 0.00 0.00 0.00 81 1016.8
20260901204033 86 0 0.0 0.0 0.00 0.00 0.00 80 1016.7
20260901203535 86 0 0.0 0.0 0.00 0.00 0.00 81 1016.8
20260901203050 85 0 0.0 0.0 0.00 0.00 0.00 82 1016.7
20260901202534 86 0 0.0 0.0 0.00 0.00 0.00 81 1016.7
20260901202036 86 0 0.0 0.0 0.00 0.00 0.00 81 1016.8
20260901201546 87 0 0.0 0.0 0.00 0.00 0.00 78 1016.8
20260901201036 86 0 0.0 0.0 0.00 0.00 0.00 78 1016.9
20260901200533 86 0 0.0 0.0 0.00 0.00 0.00 80 1016.9
20260901200101 87 0 0.0 0.0 0.00 0.00 0.00 79 1017.0
20260901195534 86 0 0.0 0.0 0.00 0.00 0.00 77 1017.0
20260901195035 86 0 0.0 0.0 0.00 0.00 0.00 79 1017.1